Location: Street
(51.1247°N, 2.7429°W)
Time: 16:30:02
(UTC+00:00)

SR - Pass Details

Date: 05 December 2020
Orbit: 575 x 880 km, 66.7° (Epoch: 26 January)

Event Time Altitude Azimuth Distance (km) Brightness Sun altitude
Rises 23:08:53 0° 321° (NW) 3,102 - -59.6°
Reaches altitude 10° 23:11:37 10° 336° (NNW) 2,237 - -59.8°
Maximum altitude 23:15:44 24° 29° (NNE) 1,573 - -60.0°
Drops below altitude 10° 23:20:06 10° 82° (E) 2,392 - -60.3°
Sets 23:23:07 0° 96° (E) 3,370 - -60.4°
